Location: Vancouver
(49.2500°N, 123.1330°W)
Time: 11:53:47
(UTC-07:00)

Vanguard 2 Rocket - Visible Passes

Search period start: 01 October 2016 00:00
Search period end: 11 October 2016 00:00
Orbit: 556 x 3327 km, 32.9° (Epoch: 01 October)

Date Brightness Start Highest point End Pass type
(mag) Time Alt. Az. Time Alt. Az. Time Alt. Az.
01 Oct 10.1 06:41:38 10° SSW 06:50:53 21° SSE 06:57:28 10° ESE visible
02 Oct 10.3 05:41:40 10° SSW 05:51:08 19° SSE 05:58:13 10° ESE visible
03 Oct 10.5 04:42:28 10° S 04:51:13 17° SSE 04:58:14 10° ESE visible
04 Oct 10.7 03:44:42 10° SSE 03:51:11 13° SSE 03:56:53 10° SE visible
04 Oct 10.0 05:53:31 10° SSW 06:05:35 26° SSE 06:13:59 10° ESE visible
05 Oct 10.2 04:53:19 10° SSW 05:05:34 24° SSE 05:14:37 10° ESE visible
06 Oct 10.4 03:56:16 13° S 04:05:23 20° SSE 04:14:35 10° ESE visible
06 Oct 9.8 06:06:14 10° SW 06:20:00 32° S 06:29:11 10° ESE visible
07 Oct 10.6 03:00:35 14° SSE 03:05:09 16° SE 03:13:26 10° ESE visible
07 Oct 10.0 05:06:25 12° SSW 05:19:52 30° SSE 05:30:05 10° ESE visible
08 Oct 10.8 02:04:49 11° SE 02:04:59 11° SE 02:09:30 10° ESE visible
08 Oct 10.2 04:10:40 19° SSW 04:19:33 27° SSE 04:30:30 10° ESE visible
08 Oct 9.7 06:19:31 10° SW 06:34:22 37° S 06:44:04 10° ESE visible
09 Oct 10.4 03:14:51 21° SSE 03:19:09 23° SSE 03:30:15 10° ESE visible
09 Oct 9.8 05:20:41 14° SW 05:34:09 36° S 05:45:07 10° ESE visible
10 Oct 10.6 02:18:58 18° SE 02:18:58 18° SE 02:28:57 10° ESE visible
10 Oct 10.0 04:24:48 23° SSW 04:33:42 34° SSE 04:45:45 10° ESE visible
10 Oct 9.7 06:33:11 10° WSW 06:48:40 39° S 06:58:44 10° ESE visible
